Aswan, Egypt

2:00 AM EET on November 21, 2017 (GMT +0200)
Aswan

Weather History for 62414 - March, 2014

Change the Weather History Date:

Sunday, March 9, 2014

  Actual Average Record
Temperature  
Mean Temperature 80 °F -  
Max Temperature 92 °F 85 °F - ()
Min Temperature 66 °F 61 °F - ()
Cooling Degree Days 15    
Growing Degree Days 30 (Base 50)    
Moisture  
Dew Point 56 °F    
Average Humidity 48    
Maximum Humidity 73    
Minimum Humidity 14    
Precipitation  
Precipitation 0.28 in 0.00 in - ()
Sea Level Pressure  
Sea Level Pressure 29.78 in    
Wind  
Wind Speed 12 mph ()    
Max Wind Speed 32 mph    
Max Gust Speed -    
Visibility 3.2 miles    
Events      
T = Trace of Precipitation, MM = Missing Value Source: Averaged Metar Reports

Daily Weather History Graph

Daily Weather History Graph

Search for Another Location

Airport or City:

Trip Planner

Search our weather history database for the weather conditions in past years. The results will help you decide how hot, cold, wet, or windy it might be!

Date:

Astronomy

Mar. 09, 2014 Rise Set
Actual Time 6:03 AM EET 5:55 PM EET
Civil Twilight 5:41 AM EET 6:17 PM EET
Nautical Twilight 5:15 AM EET 6:44 PM EET
Astronomical Twilight 4:48 AM EET 7:10 PM EET
Moon 11:58 AM EET (3/9) 12:46 AM EET (3/9)
Length of Visible Light 12h 36m
Length of Day
11h 51m
First Quarter, 58% of the Moon is Illuminated
Mar 9
First Quarter
Mar 16
Full
Mar 24
Last Quarter
Mar 30
New
Apr 7
First Quarter

Hourly Weather History & Observations

Time (EET) Temp. Heat Index Dew Point Humidity Pressure Visibility Wind Dir Wind Speed Gust Speed Precip Events Conditions
12:00 AM 80.6 °F - 44.6 °F 28% 29.83 in 5.0 mi NE 8.1 mph - N/A   Scattered Clouds
1:00 AM 75.2 °F - 57.2 °F 53% 29.83 in 6.2 mi North 11.5 mph - N/A   Scattered Clouds
2:00 AM 75 °F - 58 °F 45% 29.79 in 6 mi North 9.2 mph - -   Partly Cloudy
2:00 AM 75.2 °F - 57.2 °F 53% 29.80 in 6.2 mi North 9.2 mph - N/A   Scattered Clouds
3:00 AM 73.4 °F - 57.2 °F 57% 29.77 in - NNE 6.9 mph - N/A   Clear
4:00 AM 73.4 °F - 57.2 °F 57% 29.80 in 6.2 mi North 12.7 mph - N/A   Scattered Clouds
5:00 AM 72 °F - 58 °F 53% 29.84 in 0 mi NNW 32.2 mph - -   Light Sandstorm
5:00 AM 73.4 °F - 59.0 °F 61% 29.86 in 0.3 mi NNW 32.2 mph - N/A   Sandstorm
6:00 AM 71.6 °F - 57.2 °F 60% 29.80 in 1.2 mi NNE 12.7 mph - N/A   Sand
7:00 AM 73.4 °F - 57.2 °F 57% 29.80 in 2.5 mi NE 13.8 mph - N/A   Sand
8:00 AM 77 °F - 54 °F 34% 29.80 in 4 mi NE 17.3 mph - -   Blowing Sand
8:00 AM 73.4 °F - 59.0 °F 61% 29.86 in 0.3 mi NNW 32.2 mph - N/A   Sand
9:00 AM 80.6 °F 80.3 °F 53.6 °F 39% 29.80 in 3.7 mi ENE 15.0 mph - N/A   Unknown
10:00 AM 84.2 °F - 50.0 °F 30% 29.80 in 3.7 mi ENE 13.8 mph - N/A   Unknown
11:00 AM 90 °F - 48 °F 14% 29.71 in 4 mi East 15.0 mph - -   Blowing Sand
11:00 AM 91.4 °F - 48.2 °F 23% 29.83 in 3.7 mi East 15.0 mph - N/A   Unknown
12:00 PM 91.4 °F - 46.4 °F 21% 29.71 in 3.7 mi SSE 9.2 mph - N/A   Unknown
1:00 PM 86.0 °F 84.5 °F 55.4 °F 35% 29.68 in 3.7 mi North 3.5 mph - N/A   Unknown
2:00 PM 87 °F - 59 °F 28% 29.64 in 4 mi NW 4.6 mph - -   Haze
2:00 PM 87.8 °F 87.1 °F 59.0 °F 38% 29.71 in 3.7 mi NW 10.4 mph - N/A   Scattered Clouds
3:00 PM 80.6 °F 81.5 °F 60.8 °F 51% 29.68 in 3.7 mi WSW 16.1 mph - N/A   Scattered Clouds
4:00 PM 82.4 °F 83.4 °F 62.6 °F 51% 29.68 in 3.7 mi WNW 10.4 mph - N/A   Scattered Clouds
5:00 PM 79 °F - 65 °F 52% 29.70 in 4 mi North 10.4 mph - -   Haze
5:00 PM 78.8 °F - 62.6 °F 57% 29.71 in 3.7 mi North 10.4 mph - N/A   Scattered Clouds
6:00 PM 75.2 °F - 50.0 °F 41% 29.74 in 0.9 mi North 16.1 mph - N/A   Sand
7:00 PM 73.4 °F - 60.8 °F 65% 29.77 in 0.9 mi North 16.1 mph - N/A   Sand
8:00 PM 70 °F - 61 °F 65% 29.79 in 2 mi North 12.7 mph - -   Blowing Sand
8:00 PM 69.8 °F - 60.8 °F 73% 29.80 in 1.6 mi North 12.7 mph - N/A   Sand
9:00 PM 69.8 °F - 59.0 °F 68% 29.83 in 1.2 mi NNW 12.7 mph - N/A   Sand
10:00 PM 68.0 °F - 53.6 °F 60% 29.86 in 1.2 mi NNW 13.8 mph - N/A   Sand
11:00 PM 66.2 °F - 57.2 °F 73% 29.89 in 6.2 mi North 6.9 mph - N/A   Scattered Clouds